User: anonymous   Login
Location: Little Eden Observatory
(34.6167°N, 93.7833°W)
Time: 20:23:55
(UTC-05:00)
Language:

N. Korean satellite - Orbit

View from above orbital plane
View from above orbital plane
View from above satellite
View from above satellite

Ground track
Ground track

The orbit data is extracted from the following two-line orbital elements,

1 39026U 12072A   18200.59736616 +.00001059 +00000-0 +42080-4 0  9999
2 39026 097.2100 209.8613 0038283 205.7200 154.2137 15.26841193310546
Epoch (UTC): 19 July 2018 14:20:12
Eccentricity: 0.0038283
inclination: 97.2100°
perigee height: 459 km
apogee height: 511 km
right ascension of ascending node: 209.8613°
argument of perigee: 205.7200°
revolutions per day: 15.26841193
mean anomaly at epoch: 154.2137°
orbit number at epoch: 31054

The dashed part of the orbit path shows where the satellite is in the earth's shadow,  

DLR